Dewpoint
73 73 74 74 74 74 72 72 73 73 73 71 73 74 74 73 73 74 74 74 72 72 71 70 71 72 71 71 72 72 72 72 72 69 69 67 70 74 75 75 74 74 74 74 74 74 73 73 72 73 73 72 72 72 72 72 72 72 72 72 72 72 72 72 72 72 72 72 71 71 71 71 71 71 71 71 71 71 71 72 72 72 72 72 72
72 73 73 74 75 74 73 72 72 73 71 73 74 74 77 74 73 73 72 74 71 73 72 70 67 69 71 70 70 70 72 71 72 69 69 68 69 73 75 75 74 74 74 74 74 74 74 73 73 73 72 73 72 72 72 72 71 71 72 72 72 72 72 72 71 71 71 71 71 71 71 71 71 71 71 71 71 71 72 71 72 72 72 72 72
73 74 74 74 74 74 73 73 72 71 73 75 75 76 74 73 74 72 74 74 73 73 72 72 71 69 69 69 69 70 70 71 69 69 66 68 67 71 75 75 74 74 74 74 74 74 74 73 73 73 73 73 72 72 72 73 73 73 72 71 71 71 72 72 72 72 71 71 71 72 71 71 71 71 71 71 71 72 72 72 72 72 72 72 72
76 76 75 74 73 72 72 72 71 72 75 76 76 75 73 74 76 77 77 75 74 74 74 71 71 69 70 69 69 69 69 69 66 68 68 69 67 69 71 74 75 75 75 75 74 74 74 73 73 74 74 73 73 73 72 73 73 72 73 73 72 72 71 71 72 71 71 71 71 72 71 71 71 71 71 71 72 72 72 72 72 72 72 72 72
76 77 75 74 73 74 72 73 73 73 76 76 76 76 74 74 75 75 74 74 73 73 74 70 69 70 69 67 68 69 70 70 70 69 67 68 68 66 69 72 74 75 75 74 74 74 74 74 73 74 73 73 73 73 73 73 73 73 73 73 73 73 72 72 72 72 71 71 71 71 71 71 71 71 71 71 72 72 72 72 71 72 72 72 72
77 78 75 73 74 73 73 72 74 75 76 77 75 75 74 74 74 74 73 74 72 73 71 69 67 68 68 66 68 70 70 68 68 69 69 68 68 70 69 69 72 74 75 74 74 74 75 74 74 74 74 74 73 73 73 73 73 73 73 73 73 73 73 73 72 72 73 73 73 72 72 72 72 72 72 72 72 72 72 72 72 72 72 72 72
78 78 76 75 72 72 73 71 76 75 76 77 76 75 75 75 74 75 74 72 71 72 71 68 65 67 67 67 67 69 70 69 70 69 69 70 70 68 69 70 70 74 74 74 75 75 74 74 74 74 74 74 74 74 73 73 73 73 73 73 73 73 73 72 72 73 73 73 73 73 73 73 72 72 72 72 72 72 72 72 72 72 72 72 73
77 78 76 75 73 72 72 76 77 75 75 76 76 75 76 76 76 74 73 71 72 68 67 67 66 63 64 65 67 69 69 71 70 69 68 71 70 70 70 70 72 72 71 71 72 74 75 74 74 74 74 74 74 73 73 73 73 73 73 73 73 72 73 73 73 73 73 73 73 73 73 73 72 72 72 72 72 72 72 72 72 72 72 72 72
77 77 77 76 73 74 72 75 76 75 76 76 76 74 75 73 76 75 75 75 70 64 64 66 64 63 63 64 67 69 69 71 70 70 70 71 70 67 69 70 71 68 73 70 70 73 75 75 75 74 74 74 74 73 73 74 73 74 73 73 73 72 73 73 73 73 73 73 73 73 73 73 72 72 72 72 72 72 72 72 72 72 72 71 72
77 77 77 76 75 74 74 76 76 76 76 74 74 73 74 75 76 76 75 75 71 67 64 63 62 62 64 63 67 67 68 69 70 70 71 71 70 69 68 68 70 69 68 70 70 70 72 75 75 75 75 74 74 74 74 74 74 74 73 73 73 73 73 73 73 73 74 73 73 73 73 73 72 72 72 72 72 72 72 72 72 71 71 71 71
76 77 77 75 75 75 76 77 76 76 77 75 73 74 76 75 74 75 76 74 69 67 66 65 65 63 61 63 66 69 68 68 71 71 70 68 68 69 66 69 69 69 71 71 69 71 71 72 72 73 74 74 74 75 74 74 74 74 73 73 73 73 73 73 73 73 73 73 73 73 72 73 73 72 72 72 72 72 72 71 71 71 71 71 71
76 77 77 77 76 75 77 76 75 76 76 75 73 74 77 77 77 75 76 73 69 67 67 67 65 65 64 64 65 67 68 68 69 70 71 70 70 70 67 67 69 69 68 70 70 68 70 72 73 70 70 73 74 74 74 75 74 74 74 74 74 73 73 73 73 73 73 73 73 73 73 73 72 72 72 72 72 72 72 71 72 71 71 71 70
76 76 76 76 76 76 76 76 75 76 76 76 76 77 77 76 76 77 74 73 68 66 65 66 66 63 64 62 64 65 67 68 68 68 67 68 68 69 67 67 67 67 69 69 69 69 68 70 72 73 71 72 73 74 75 75 74 74 74 74 74 73 74 74 73 73 73 73 73 73 73 73 73 73 72 72 72 72 71 71 71 71 71 70 70
75 76 76 75 75 74 75 76 75 76 76 76 76 76 78 76 76 75 74 72 69 63 65 66 64 60 61 61 61 62 66 65 65 64 64 65 65 66 66 64 62 64 66 68 69 68 67 68 69 70 72 72 70 72 74 74 74 75 75 75 74 74 73 72 72 73 73 73 73 73 73 73 73 73 73 72 72 72 71 71 71 70 69 70 70
75 75 75 75 75 75 76 76 76 76 76 77 77 78 78 78 77 73 72 73 69 67 68 66 60 61 63 63 59 60 64 64 64 63 62 62 62 62 64 62 63 65 66 67 66 68 65 66 68 69 71 72 71 70 71 73 72 75 74 74 74 74 74 73 72 72 73 73 73 72 72 73 73 73 72 72 72 72 71 71 71 70 70 69 70
74 74 75 75 75 75 75 76 77 77 76 76 77 77 77 77 74 74 74 71 66 65 65 66 65 62 62 60 58 58 58 62 63 63 61 61 61 61 63 63 64 68 68 66 65 66 67 68 68 70 71 70 71 70 71 70 75 74 74 74 75 75 74 73 73 73 72 72 73 72 73 73 73 73 72 72 72 71 71 71 71 70 70 69 70
74 75 74 75 76 76 75 76 75 76 75 75 75 74 75 74 76 76 76 72 68 65 66 64 66 65 63 62 60 60 57 57 54 62 60 60 60 60 63 62 64 67 64 64 68 68 66 66 69 70 72 72 72 70 70 72 73 74 75 74 74 75 74 74 73 73 73 73 72 73 73 73 73 72 72 72 71 70 70 70 70 70 70 70 69
74 75 75 75 76 76 76 75 75 76 75 74 74 74 75 74 75 75 75 76 73 68 64 66 65 67 66 62 62 59 57 61 61 60 65 59 62 61 61 61 65 64 67 66 65 66 66 66 69 70 71 71 70 70 69 71 73 73 73 73 74 74 74 74 74 73 73 73 71 72 73 73 73 72 71 71 70 70 70 70 70 70 71 70 70
73 74 75 75 76 76 76 75 75 74 75 75 74 73 72 73 75 75 74 76 74 71 67 65 68 67 63 61 62 63 60 61 62 62 62 63 60 58 59 60 61 62 62 62 61 62 64 66 66 65 68 71 70 71 72 71 73 71 73 75 74 74 73 73 74 73 73 73 73 71 72 71 73 73 72 71 71 71 71 71 71 71 71 70 69
72 74 75 75 76 76 77 76 74 74 74 74 72 71 72 74 75 77 77 77 76 72 68 65 66 66 65 64 65 65 66 62 62 62 62 62 62 59 58 58 58 58 59 59 59 61 61 64 63 64 67 69 70 70 71 71 70 74 75 74 74 74 74 74 74 73 73 72 73 73 72 71 71 73 73 72 71 71 71 70 71 71 71 70 68
74 73 75 75 75 76 76 76 74 74 75 73 72 70 72 73 75 75 76 77 76 73 73 71 67 64 67 68 66 65 64 63 65 66 63 62 59 57 60 59 60 59 60 58 59 60 61 64 63 62 66 68 69 69 68 70 70 73 73 76 75 75 74 74 74 74 73 73 73 73 73 72 72 72 72 72 72 72 71 71 71 71 71 71 70
74 75 75 75 75 76 75 75 75 72 73 72 72 72 73 74 74 74 75 76 76 74 73 72 70 68 67 69 69 67 67 65 62 63 62 65 62 59 58 58 60 61 62 59 62 60 60 61 62 63 65 68 69 69 69 69 70 69 71 76 75 75 74 74 74 74 74 73 73 73 73 73 73 72 72 73 73 73 72 71 71 71 71 70 70
71 73 74 74 75 75 74 74 74 74 75 74 74 72 70 72 73 74 75 75 74 74 73 73 72 72 70 70 69 66 66 64 63 62 62 62 61 59 58 58 57 58 62 62 64 62 61 61 62 59 65 65 66 69 70 70 72 70 75 75 75 75 75 74 74 74 74 74 74 74 74 74 73 73 73 73 73 73 73 72 71 71 71 71 70
73 71 72 72 74 74 75 74 75 74 74 74 74 73 72 71 72 74 74 74 75 75 74 73 72 72 70 66 68 65 64 63 60 63 64 63 63 62 61 61 61 59 61 66 65 63 63 61 61 62 64 66 67 69 69 71 71 73 74 74 74 74 74 75 74 74 74 73 73 73 74 74 73 73 73 74 73 73 73 72 72 72 71 71 70
73 72 72 73 73 75 75 74 75 76 76 76 75 75 75 72 74 73 74 74 74 75 73 73 72 70 68 65 64 63 63 64 62 60 61 62 63 61 59 59 60 61 63 63 63 62 61 61 63 62 63 68 67 69 70 70 67 74 74 71 73 73 73 74 74 74 74 73 73 73 73 73 73 73 74 74 74 73 73 73 73 72 71 70 71
72 73 72 72 73 74 76 76 76 76 76 76 76 76 76 75 74 74 73 74 74 75 75 73 73 73 72 69 65 64 63 63 64 64 61 60 61 60 64 64 61 61 63 66 69 65 61 63 63 67 66 68 68 69 72 68 66 75 75 70 73 72 73 73 73 73 73 73 73 73 73 73 73 73 73 74 74 73 73 73 73 72 72 71 71
71 73 75 74 74 75 75 75 76 76 77 77 75 76 76 76 75 75 74 74 75 74 74 73 72 72 72 72 71 67 65 66 64 64 64 63 63 63 64 64 61 60 61 63 66 67 60 60 59 60 68 73 72 71 72 70 68 74 75 75 70 72 72 72 72 72 72 72 72 73 73 73 73 73 73 74 73 74 73 73 73 72 71 70 71
74 74 74 75 75 75 75 75 76 75 76 77 76 75 76 75 75 75 76 74 75 76 74 74 73 74 73 73 74 70 69 67 68 66 66 67 67 66 65 65 64 62 62 62 62 62 62 62 62 64 66 70 72 71 73 71 66 71 75 72 70 70 71 71 71 71 71 71 71 72 72 72 72 73 73 73 73 73 73 73 73 72 71 71 71
73 74 74 76 76 75 74 73 74 75 75 76 75 76 76 75 74 75 75 74 75 76 74 74 75 72 73 73 73 72 72 73 72 70 71 72 70 68 66 63 66 64 63 63 64 59 62 58 57 69 67 68 72 69 70 71 69 69 70 72 72 72 69 70 70 69 70 70 70 70 71 71 71 71 72 73 72 72 73 72 72 72 71 71 71
71 71 74 74 76 76 75 75 74 74 75 74 75 75 76 74 75 75 74 75 75 75 76 74 74 75 74 72 72 72 73 73 71 71 73 74 72 71 69 68 67 65 65 63 64 63 61 62 60 61 72 69 67 69 69 70 69 72 68 69 70 70 68 69 70 69 69 69 69 69 69 70 70 70 70 70 71 71 71 71 72 71 71 71 71
74 74 75 74 75 76 77 75 75 75 75 74 75 76 76 75 74 73 74 75 74 74 75 76 74 74 75 74 74 73 73 72 72 70 73 73 73 73 71 71 70 69 68 67 64 65 64 63 62 61 62 68 64 65 66 68 70 70 69 69 70 69 69 72 69 69 69 68 67 67 67 67 68 68 68 68 69 69 70 70 70 70 71 70 71
73 74 74 74 74 73 74 73 71 72 73 73 73 76 76 75 73 72 72 74 73 74 74 74 73 74 75 75 75 75 74 74 74 72 73 74 74 72 73 73 73 72 71 69 67 66 66 62 64 64 63 65 66 68 70 70 69 72 71 70 71 71 72 71 70 69 68 67 67 67 66 65 66 67 67 68 68 69 69 69 68 68 68 69 70
73 73 74 74 74 74 73 73 71 72 74 73 74 75 76 76 75 75 74 74 74 73 74 75 73 75 76 76 76 76 76 75 74 72 72 73 75 73 73 73 72 73 73 72 70 69 70 69 67 66 66 68 64 67 67 67 69 70 71 73 73 71 70 70 69 68 68 67 66 66 65 65 65 66 66 67 68 68 69 69 68 67 66 67 67
73 72 74 74 74 73 73 74 74 74 75 76 73 74 75 75 75 74 74 75 74 74 74 74 75 74 76 76 76 76 76 76 74 72 72 70 72 71 72 72 71 72 74 72 71 70 70 71 70 71 69 69 69 71 71 69 69 71 70 69 71 73 72 71 70 69 68 67 65 64 64 64 64 65 65 66 67 67 67 67 67 66 65 65 64
74 73 73 73 75 75 74 74 75 75 76 76 75 74 74 76 76 74 73 74 75 74 73 74 74 75 75 76 75 74 74 75 76 74 72 72 71 71 71 71 72 72 73 74 72 71 70 70 71 70 69 70 70 71 72 71 72 71 72 71 69 69 70 71 71 69 67 66 65 64 64 64 64 64 64 65 66 65 66 65 65 64 64 63 62
71 74 73 73 74 76 75 75 75 76 76 75 75 74 75 75 76 76 75 75 75 74 74 74 74 74 74 75 74 73 74 75 75 74 74 74 74 74 73 74 73 73 73 74 75 74 72 71 73 72 72 72 71 72 72 72 70 71 70 71 70 70 70 70 70 69 68 66 65 65 64 63 63 63 63 63 63 63 63 62 62 63 62 62 61
71 72 74 74 74 75 75 75 75 76 76 76 75 73 74 75 75 74 75 75 75 75 75 75 74 75 75 74 74 74 75 75 75 74 73 74 75 74 74 75 74 74 74 74 74 73 72 71 72 73 74 73 73 74 73 72 72 72 73 72 71 72 73 71 69 68 67 66 66 65 64 64 63 63 62 62 62 62 62 61 61 62 62 61 61
71 70 73 73 73 75 76 75 76 76 76 76 76 75 72 73 75 74 74 75 74 75 75 74 74 75 74 75 74 74 74 74 74 73 75 75 76 74 75 75 75 74 74 73 73 73 72 71 71 71 73 71 72 73 74 74 72 72 72 73 73 73 73 72 71 70 70 69 69 69 66 65 64 63 63 63 62 61 61 61 61 60 60 60 59
70 69 70 73 74 74 75 75 75 76 76 76 77 77 75 74 74 75 73 73 74 74 75 73 72 73 74 74 75 75 75 75 74 73 75 76 75 75 75 76 75 74 73 73 72 72 71 71 71 71 71 72 72 72 74 74 74 73 72 72 72 73 73 73 72 72 72 72 70 67 67 67 66 65 62 61 61 61 61 61 60 59 59 58 58
70 70 69 71 73 73 74 75 75 75 76 76 77 77 77 75 74 74 75 73 72 73 74 74 72 71 72 73 72 74 75 76 76 75 75 75 76 75 75 75 75 75 73 72 71 71 71 70 69 69 70 71 72 72 73 74 73 73 73 72 71 71 71 73 73 72 72 72 72 71 69 67 66 65 63 62 62 62 62 62 62 62 61 59 58
70 70 70 70 72 73 74 74 75 74 74 75 76 76 76 76 75 73 74 74 73 72 73 72 73 73 71 70 70 71 75 77 77 77 77 77 76 75 76 76 76 74 73 72 72 71 72 71 71 71 71 71 72 72 71 72 72 72 72 72 72 72 72 71 72 74 73 72 72 71 71 71 71 71 71 71 71 66 64 63 64 64 63 60 59
73 73 72 72 71 72 73 74 74 74 74 74 74 70 72 76 76 73 74 75 75 74 74 73 71 71 71 71 68 73 77 77 76 74 72 72 72 72 74 75 75 74 73 73 73 72 72 71 70 70 70 70 70 72 72 72 73 73 72 73 71 71 71 71 72 73 72 72 71 71 71 72 71 71 71 71 71 73 71 69 67 65 64 61 60
74 75 73 72 71 71 72 73 73 73 74 73 69 66 66 69 74 76 75 75 76 76 74 75 74 72 71 72 73 73 77 76 76 71 71 69 69 68 68 69 73 76 74 72 72 73 72 72 71 71 70 71 72 73 72 72 72 73 73 74 73 73 72 71 70 72 74 73 73 72 71 72 73 71 71 70 69 70 69 70 67 65 63 62 61
75 74 73 73 73 72 71 72 72 73 73 70 65 64 65 65 69 74 74 74 74 75 75 74 74 74 73 71 71 72 74 76 76 77 74 69 67 67 66 66 67 68 69 74 74 72 73 72 72 72 72 72 72 73 72 72 74 73 74 73 74 73 72 72 72 71 74 76 74 72 70 72 72 71 71 70 70 71 68 67 65 65 63 62 61
75 75 75 74 74 73 72 73 72 72 72 68 64 63 64 64 65 69 72 73 73 73 74 75 74 75 75 74 72 72 71 77 75 75 77 78 69 65 65 66 66 65 64 64 66 74 74 73 73 72 72 73 73 73 74 74 74 73 73 72 73 73 73 72 72 71 74 76 73 71 70 70 71 71 70 70 69 69 69 66 65 64 63 62 62
75 75 74 75 75 75 74 74 74 72 72 68 63 62 62 63 63 66 73 72 72 72 73 74 74 75 76 75 75 74 74 75 76 76 76 76 76 77 75 74 74 72 66 63 63 63 68 73 74 73 74 76 75 75 75 75 74 73 73 72 73 72 72 72 73 73 73 73 71 70 69 68 69 68 68 69 68 69 70 66 64 63 63 62 62
75 75 74 75 75 75 74 73 73 72 70 65 61 61 61 61 62 64 74 73 72 73 73 74 75 75 76 76 76 75 76 76 76 76 76 76 76 76 75 74 76 76 76 73 71 72 72 72 74 75 76 76 76 77 76 76 75 75 74 74 73 73 73 73 72 72 72 72 72 71 67 68 68 67 66 67 66 67 68 64 63 62 62 61 61
74 74 74 74 74 74 74 73 72 72 71 64 60 59 59 60 61 70 73 74 74 73 73 74 75 76 76 76 76 76 76 76 75 71 72 76 75 75 75 74 73 72 72 73 69 72 76 76 76 75 76 77 72 76 76 74 74 74 73 73 72 72 71 70 69 67 67 68 70 69 68 67 69 66 66 65 63 63 63 64 62 62 61 60 61
72 72 74 73 74 73 73 74 74 73 72 67 59 58 58 59 62 73 74 73 74 74 74 74 75 75 76 77 77 76 76 77 73 66 65 70 75 75 74 74 73 72 71 73 69 65 65 65 66 67 62 61 61 60 60 60 66 69 71 69 69 69 69 68 67 65 64 64 65 67 66 66 67 66 65 64 65 64 64 64 64 60 60 59 59
70 71 72 73 74 73 72 73 72 73 73 68 58 57 57 57 65 73 74 73 74 74 74 75 75 75 76 76 76 76 76 76 69 64 64 71 76 75 74 74 73 72 72 72 75 77 63 62 62 61 60 60 60 59 59 59 59 62 69 68 68 67 68 68 66 66 65 66 64 63 65 62 63 64 63 62 63 63 63 64 65 64 61 60 57
72 73 72 73 72 73 71 71 72 72 72 69 57 57 56 56 65 74 73 73 74 74 74 74 75 75 76 76 75 73 74 73 67 62 62 70 75 75 74 74 72 72 72 74 74 76 78 78 77 76 74 68 70 72 72 63 61 63 69 69 68 67 66 67 67 66 64 62 63 65 63 62 63 62 63 62 61 62 64 65 65 66 66 66 65